Regional Weather Roundup
Issued by NWS Portland, ME

Current Version | Previous Version | Text Only | Print | Product List | Glossary Off
Versions: 1 2 3 4 5 6 7 8 9 10 11 12 13 14 15 16 17 18 19 20 21 22 23 24 25 26 27 28 29 30 31 32 33 34 35 36 37 38 39 40 41 42 43 44 45 46 47 48 49 50
000 ASUS41 KGYX 022310 RWRGYX WEATHER ROUNDUP FOR MAINE AND NEW HAMPSHIRE NATIONAL WEATHER SERVICE GRAY ME 700 PM EDT THU JUL 02 2020 MEZ002-005-006-010-012-015-018-020-021-024-026-027-029-030000- MAINE CITY SKY/WX TMP DP RH WIND PRES REMARKS PORTLAND PTSUNNY 77 65 66 S7 29.69R SANFORD MOSUNNY 83 71 67 S7 29.69S BAR HARBOR CLOUDY 64 64 100 VRB3 29.72R WISCASSET CLOUDY 73 65 75 S3 29.71R ROCKLAND CLOUDY 69 66 90 W9 29.71R FRYEBURG MOSUNNY 86 66 51 VRB5 29.70R LEWISTONAUBURN TSTM 73 70 88 E8 29.74R FOG AUGUSTA TSTM 71 65 81 VRB5 29.72R WATERVILLE CLOUDY 70 68 93 VRB5 29.70R BANGOR TSTM 72 68 87 CALM 29.70F GREENVILLE N/A 72 63 73 NW9 29.75R MILLINOCKET CLOUDY 72 68 87 E6 29.73R HOULTON CLOUDY 65 60 84 E6 29.77R PRESQUE ISLE CLOUDY 70 61 73 N12 29.80R FRENCHVILLE CLOUDY 68 59 73 NE5 29.81R CARIBOU CLOUDY 69 57 65 NE7 29.79R $$ NHZ002-005-008-009-011-012-014-030000- NEW HAMPSHIRE CITY SKY/WX TMP DP RH WIND PRES REMARKS PORTSMOUTH MOSUNNY 82 67 60 SE7 29.67S ROCHESTER MOSUNNY 87 68 52 S3 29.68S HX 90 NASHUA MOSUNNY 89 67 47 W5 29.70R HX 92 MANCHESTER PTSUNNY 91 63 39 SW5 29.68R THUNDER HX 92 CONCORD TSTM 77 67 71 W10G30 29.72R LACONIA MOSUNNY 75 69 81 SW5 29.72F PLYMOUTH FAIR 83 66 57 MISG 29.72R BERLIN CLOUDY 80 66 62 NW6 29.76R WHITEFIELD PTSUNNY 81 63 54 NW6 29.77R JAFFREY MOSUNNY 85 64 49 VRB5 29.77R KEENE PTSUNNY 80 72 76 SW5 29.75R LEBANON CLOUDY 87 63 44 N5 29.74R MT WASHINGTON PTSUNNY 57 52 82 NW25G45 N/A $$ VTZ005-007-008-030000- VERMONT CITY SKY/WX TMP DP RH WIND PRES REMARKS ST JOHNSBURY N/A 82 67 60 MISG 29.74R MONTPELIER PTSUNNY 78 65 63 NW10 29.82S BURLINGTON PTSUNNY 85 68 56 N6 29.75S $$ MAZ007-012-024-CTZ003-RIZ002-NYZ038-NYZ072-030000- SOUTHERN NEW ENGLAND AND NY CITY SKY/WX TMP DP RH WIND PRES REMARKS BOSTON MOSUNNY 80 67 64 SE3 29.71R WORCESTER MOSUNNY 76 62 62 W8 29.78R NANTUCKET SUNNY 70 66 87 SW9 29.77S PROVIDENCE MOSUNNY 82 71 69 S10 29.74R HARTFORD PTSUNNY 89 65 44 W8 29.73R HX 91 ALBANY MOSUNNY 75 68 78 S9 29.80F NEW YORK CITY MOSUNNY 90 64 42 S8 29.75R HX 91 $$ ANZ081-ANZ082-ANZ150-NHZ014-MEZ023>029-030000- COASTAL MARINE OBSERVATIONS STATION/POSITION TIME TEMP WIND PRES WAVE AIR SEA DIR/SP/G HT/PER (UTC) (F) (DEG/KT/KT) (MB) (FT/S) MOUNT DESERT ROC 2300 180/ 13/ 13 1006.0R ISLE OF SHOALS 2200 72 170/ 18/ 19 1004.7F JEFFREYS LEDGE 2205 68 N/A 3/ 9 GEORGES BANK BUO 2300 1009.5 $$ .............KEY.............. WCI - WIND CHILL TC - TEMPERATURE IN CELSIUS VSB - VISIBILITY IN MILES HX - HEAT INDEX FAIR- INDICATES FEW OR NO CLOUDS BELOW 12,000 FT, WITH NO SIGNIFICANT WEATHER AND/OR OBSTRUCTIONS TO VISIBILITY.

USA.gov is the U.S. government's official web portal to all federal, state and local government web resources and services.